EZY25PV EGAC-EGGW

Flight info

Callsign EZY25PV
Flight time 0h 47m
Altitude 33000
Route DUFFY L10 RINGA Q39 BABGU DCT ETIGA DCT INKOB Q39 NOMSU UQ4 LISTO
Aircraft A320/M-SDE2E3FGHIJ1RWXYZ/LB1

Departure

Time 2026-05-07 16:05
Airport George Best Belfast City Airport (EGAC)

Arrival

Time 2026-05-07 16:53
Airport London Luton Airport (EGGW)
Time Latitude Longitude Altitude Speed Heading
2026-05-07 15:41 54.61585 -5.87046 22 ft 0 kts 161°
2026-05-07 15:53 54.61591 -5.87050 22 ft 4 kts 160°
2026-05-07 15:53 54.61615 -5.87069 21 ft 4 kts 140°
2026-05-07 15:53 54.61628 -5.87098 26 ft 4 kts 76°
2026-05-07 15:54 54.61623 -5.87113 25 ft 1 kts 34°
2026-05-07 15:54 54.61622 -5.87114 24 ft 0 kts 34°
2026-05-07 15:57 54.61642 -5.87090 22 ft 4 kts 34°
2026-05-07 15:57 54.61667 -5.87061 21 ft 7 kts 34°
2026-05-07 15:57 54.61709 -5.87012 21 ft 5 kts 34°
2026-05-07 15:57 54.61740 -5.86988 21 ft 7 kts
2026-05-07 15:58 54.61769 -5.87016 22 ft 0 kts 311°
2026-05-07 16:02 54.61770 -5.87018 21 ft 2 kts 311°
2026-05-07 16:03 54.61797 -5.87082 19 ft 12 kts 304°
2026-05-07 16:03 54.61870 -5.87168 19 ft 17 kts 17°
2026-05-07 16:03 54.62028 -5.86988 17 ft 31 kts 35°
2026-05-07 16:03 54.62202 -5.86780 20 ft 29 kts 34°
2026-05-07 16:04 54.62356 -5.86598 22 ft 24 kts 37°
2026-05-07 16:04 54.62467 -5.86520 20 ft 13 kts 52°
2026-05-07 16:04 54.62445 -5.86489 20 ft 5 kts 193°
2026-05-07 16:04 54.62421 -5.86522 22 ft 3 kts 216°
2026-05-07 16:05 54.62391 -5.86558 22 ft 10 kts 214°
2026-05-07 16:05 54.62242 -5.86736 21 ft 60 kts 214°
2026-05-07 16:05 54.61663 -5.87425 28 ft 136 kts 216°
2026-05-07 16:05 54.60844 -5.88360 725 ft 141 kts 210°
2026-05-07 16:06 54.60008 -5.89329 1456 ft 152 kts 212°
2026-05-07 16:06 54.58981 -5.90100 1786 ft 174 kts 185°
2026-05-07 16:06 54.57708 -5.89681 2130 ft 201 kts 165°
2026-05-07 16:06 54.56301 -5.88873 2561 ft 225 kts 165°
2026-05-07 16:07 54.54755 -5.87988 3129 ft 242 kts 165°
2026-05-07 16:07 54.53133 -5.87054 3944 ft 249 kts 164°
2026-05-07 16:07 54.51543 -5.85795 4801 ft 260 kts 145°
2026-05-07 16:07 54.50349 -5.83380 5666 ft 270 kts 129°
2026-05-07 16:08 54.49281 -5.80699 6568 ft 273 kts 128°
2026-05-07 16:08 54.48205 -5.77971 7406 ft 277 kts 128°
2026-05-07 16:08 54.47116 -5.75217 8249 ft 281 kts 128°
2026-05-07 16:08 54.46005 -5.72433 9091 ft 284 kts 128°
2026-05-07 16:09 54.44893 -5.69655 9912 ft 288 kts 128°
2026-05-07 16:09 54.43727 -5.66759 10385 ft 305 kts 128°
2026-05-07 16:09 54.42469 -5.63659 10686 ft 325 kts 128°
2026-05-07 16:09 54.41162 -5.60435 11325 ft 332 kts 128°
2026-05-07 16:10 54.39837 -5.57156 12043 ft 336 kts 128°
2026-05-07 16:10 54.38502 -5.53837 12810 ft 340 kts 128°
2026-05-07 16:10 54.37151 -5.50476 13535 ft 344 kts 128°
2026-05-07 16:10 54.35785 -5.47094 14207 ft 347 kts 128°
2026-05-07 16:11 54.34404 -5.43690 14839 ft 350 kts 128°
2026-05-07 16:11 54.33003 -5.40244 15458 ft 354 kts 128°
2026-05-07 16:11 54.31591 -5.36770 16074 ft 357 kts 128°
2026-05-07 16:11 54.30162 -5.33259 16689 ft 361 kts 128°
2026-05-07 16:12 54.28718 -5.29717 17301 ft 365 kts 128°
2026-05-07 16:12 54.27240 -5.26166 17908 ft 368 kts 130°
2026-05-07 16:12 54.25666 -5.22691 18475 ft 370 kts 132°
2026-05-07 16:12 54.24026 -5.19281 19001 ft 373 kts 133°
2026-05-07 16:13 54.22348 -5.15886 19531 ft 375 kts 134°
2026-05-07 16:13 54.20653 -5.12474 20073 ft 378 kts 134°
2026-05-07 16:13 54.18954 -5.09032 20598 ft 380 kts 133°
2026-05-07 16:13 54.17253 -5.05551 21122 ft 383 kts 133°
2026-05-07 16:14 54.15546 -5.02034 21633 ft 386 kts 133°
2026-05-07 16:14 54.13837 -4.98493 22109 ft 389 kts 133°
2026-05-07 16:14 54.12112 -4.94911 22562 ft 392 kts 133°
2026-05-07 16:14 54.10371 -4.91303 23055 ft 395 kts 133°
2026-05-07 16:15 54.08615 -4.87673 23512 ft 398 kts 133°
2026-05-07 16:15 54.06844 -4.84028 23925 ft 400 kts 133°
2026-05-07 16:15 54.05059 -4.80377 24348 ft 402 kts 133°
2026-05-07 16:15 54.03284 -4.76697 24766 ft 404 kts 131°
2026-05-07 16:16 54.01560 -4.72930 25171 ft 405 kts 130°
2026-05-07 16:16 53.99862 -4.69089 25623 ft 405 kts 129°
2026-05-07 16:16 53.98184 -4.65238 26038 ft 406 kts 129°
2026-05-07 16:16 53.96501 -4.61376 26449 ft 408 kts 129°
2026-05-07 16:17 53.94801 -4.57511 26839 ft 409 kts 130°
2026-05-07 16:17 53.93089 -4.53655 27226 ft 410 kts 130°
2026-05-07 16:17 53.91360 -4.49792 27613 ft 411 kts 130°
2026-05-07 16:17 53.89621 -4.45933 27953 ft 414 kts 130°
2026-05-07 16:18 53.87868 -4.42054 28295 ft 416 kts 130°
2026-05-07 16:18 53.86120 -4.38134 28661 ft 418 kts 129°
2026-05-07 16:18 53.84426 -4.34122 29033 ft 420 kts 127°
2026-05-07 16:18 53.82767 -4.30042 29389 ft 421 kts 127°
2026-05-07 16:19 53.81142 -4.25981 29727 ft 423 kts 127°
2026-05-07 16:19 53.79468 -4.21790 30078 ft 424 kts 127°
2026-05-07 16:19 53.77827 -4.17714 30356 ft 426 kts 127°
2026-05-07 16:19 53.76151 -4.13596 30640 ft 426 kts 127°
2026-05-07 16:20 53.74459 -4.09473 30920 ft 427 kts 127°
2026-05-07 16:20 53.72758 -4.05354 31183 ft 428 kts 127°
2026-05-07 16:20 53.71049 -4.01244 31514 ft 427 kts 128°
2026-05-07 16:20 53.69342 -3.97144 31893 ft 426 kts 127°
2026-05-07 16:21 53.67644 -3.93061 32273 ft 425 kts 127°
2026-05-07 16:21 53.65949 -3.88977 32557 ft 425 kts 127°
2026-05-07 16:21 53.64253 -3.84891 32878 ft 425 kts 127°
2026-05-07 16:21 53.62553 -3.80807 32988 ft 423 kts 127°
2026-05-07 16:22 53.60890 -3.76817 33000 ft 413 kts 127°
2026-05-07 16:22 53.57609 -3.68974 33000 ft 408 kts 128°
2026-05-07 16:23 53.54334 -3.61198 32986 ft 407 kts 127°
2026-05-07 16:23 53.51066 -3.53458 32999 ft 405 kts 127°
2026-05-07 16:24 53.47810 -3.45753 33002 ft 405 kts 127°
2026-05-07 16:24 53.45649 -3.38774 33004 ft 408 kts 115°
2026-05-07 16:25 53.43443 -3.30012 33003 ft 408 kts 116°
2026-05-07 16:25 53.41206 -3.21273 33007 ft 408 kts 116°
2026-05-07 16:26 53.38964 -3.12542 33014 ft 408 kts 115°
2026-05-07 16:26 53.36910 -3.03677 33018 ft 408 kts 112°
2026-05-07 16:27 53.34978 -2.94756 33008 ft 407 kts 112°
2026-05-07 16:27 53.33022 -2.85866 33010 ft 407 kts 113°
2026-05-07 16:28 53.31021 -2.77036 33021 ft 406 kts 113°
2026-05-07 16:28 53.28722 -2.68452 33014 ft 404 kts 118°
2026-05-07 16:29 53.26243 -2.60044 33022 ft 404 kts 118°
2026-05-07 16:29 53.23764 -2.51638 33018 ft 403 kts 118°
2026-05-07 16:30 53.21287 -2.43248 33014 ft 403 kts 118°
2026-05-07 16:30 53.18802 -2.34875 33011 ft 403 kts 118°
2026-05-07 16:31 53.16304 -2.26510 33013 ft 403 kts 118°
2026-05-07 16:31 53.13143 -2.18898 33015 ft 399 kts 136°
2026-05-07 16:32 53.08818 -2.13164 33009 ft 398 kts 144°
2026-05-07 16:32 53.04343 -2.07732 33009 ft 398 kts 144°
2026-05-07 16:33 52.99864 -2.02293 33010 ft 399 kts 144°
2026-05-07 16:33 52.95378 -1.96859 33011 ft 400 kts 144°
2026-05-07 16:34 52.90867 -1.91408 33045 ft 406 kts 144°
2026-05-07 16:34 52.86209 -1.85798 33039 ft 419 kts 144°
2026-05-07 16:35 52.81489 -1.80127 32614 ft 417 kts 144°
2026-05-07 16:35 52.79152 -1.77322 32038 ft 413 kts 144°
2026-05-07 16:35 52.76834 -1.74546 31476 ft 410 kts 144°
2026-05-07 16:35 52.74512 -1.71868 30936 ft 406 kts 150°
2026-05-07 16:36 52.72031 -1.69664 30309 ft 404 kts 153°
2026-05-07 16:36 52.69542 -1.67523 29709 ft 402 kts 153°
2026-05-07 16:36 52.67072 -1.65401 29102 ft 399 kts 153°
2026-05-07 16:36 52.64647 -1.63322 28517 ft 396 kts 153°
2026-05-07 16:37 52.62210 -1.61232 27936 ft 394 kts 153°
2026-05-07 16:37 52.59792 -1.59155 27450 ft 389 kts 153°
2026-05-07 16:37 52.57423 -1.57122 26961 ft 384 kts 154°
2026-05-07 16:37 52.55047 -1.55090 26309 ft 385 kts 154°
2026-05-07 16:38 52.52687 -1.53079 25538 ft 380 kts 154°
2026-05-07 16:38 52.50351 -1.51090 24650 ft 377 kts 154°
2026-05-07 16:38 52.48033 -1.49114 23915 ft 371 kts 154°
2026-05-07 16:38 52.45788 -1.47198 23424 ft 358 kts 155°
2026-05-07 16:39 52.43618 -1.45347 22937 ft 345 kts 155°
2026-05-07 16:39 52.41500 -1.43546 22493 ft 343 kts 155°
2026-05-07 16:39 52.39377 -1.41751 22061 ft 341 kts 155°
2026-05-07 16:39 52.37275 -1.39972 21621 ft 340 kts 155°
2026-05-07 16:40 52.35180 -1.38197 21186 ft 338 kts 155°
2026-05-07 16:40 52.33096 -1.36435 20757 ft 336 kts 155°
2026-05-07 16:40 52.31024 -1.34688 20332 ft 335 kts 155°
2026-05-07 16:40 52.28960 -1.32935 19917 ft 334 kts 154°
2026-05-07 16:41 52.26935 -1.31097 19601 ft 332 kts 152°
2026-05-07 16:41 52.24944 -1.29208 19276 ft 330 kts 152°
2026-05-07 16:41 52.22969 -1.27304 18952 ft 329 kts 152°
2026-05-07 16:41 52.21009 -1.25413 18623 ft 327 kts 152°
2026-05-07 16:42 52.19053 -1.23541 18291 ft 325 kts 152°
2026-05-07 16:42 52.17097 -1.21685 17940 ft 323 kts 152°
2026-05-07 16:42 52.15159 -1.19861 17615 ft 321 kts 152°
2026-05-07 16:42 52.13226 -1.18053 17288 ft 319 kts 152°
2026-05-07 16:43 52.11314 -1.16267 16972 ft 317 kts 152°
2026-05-07 16:43 52.09408 -1.14486 16653 ft 315 kts 152°
2026-05-07 16:43 52.07514 -1.12719 16339 ft 313 kts 152°
2026-05-07 16:43 52.05631 -1.10965 16024 ft 311 kts 152°
2026-05-07 16:44 52.03761 -1.09220 15713 ft 309 kts 152°
2026-05-07 16:44 52.01903 -1.07486 15400 ft 307 kts 152°
2026-05-07 16:44 52.00130 -1.05556 15086 ft 307 kts 141°
2026-05-07 16:44 51.98664 -1.03036 14516 ft 311 kts 128°
2026-05-07 16:45 51.97460 -1.00130 13965 ft 307 kts 126°
2026-05-07 16:45 51.96290 -0.97283 13358 ft 301 kts 126°
2026-05-07 16:45 51.95126 -0.94478 12716 ft 299 kts 126°
2026-05-07 16:45 51.93964 -0.91695 11987 ft 298 kts 126°
2026-05-07 16:46 51.92796 -0.88904 11173 ft 301 kts 126°
2026-05-07 16:46 51.91616 -0.86089 10388 ft 303 kts 126°
2026-05-07 16:46 51.90432 -0.83259 9577 ft 304 kts 126°
2026-05-07 16:46 51.89248 -0.80429 8714 ft 304 kts 126°
2026-05-07 16:47 51.88035 -0.77633 7880 ft 302 kts 132°
2026-05-07 16:47 51.86360 -0.75723 7070 ft 295 kts 162°
2026-05-07 16:47 51.84407 -0.74755 6290 ft 292 kts 166°
2026-05-07 16:47 51.82521 -0.73594 5476 ft 292 kts 147°
2026-05-07 16:48 51.81196 -0.71157 4681 ft 293 kts 115°
2026-05-07 16:48 51.80910 -0.67975 4090 ft 285 kts 81°
2026-05-07 16:48 51.81521 -0.65096 3955 ft 262 kts 56°
2026-05-07 16:48 51.82705 -0.62978 3660 ft 248 kts 47°
2026-05-07 16:49 51.83481 -0.60630 3395 ft 228 kts 78°
2026-05-07 16:49 51.83777 -0.58272 3099 ft 202 kts 77°
2026-05-07 16:49 51.84110 -0.56170 2833 ft 184 kts 76°
2026-05-07 16:49 51.84439 -0.54252 2588 ft 172 kts 75°
2026-05-07 16:50 51.84745 -0.52490 2390 ft 158 kts 75°
2026-05-07 16:50 51.85034 -0.50829 2167 ft 150 kts 75°
2026-05-07 16:50 51.85314 -0.49221 1957 ft 148 kts 75°
2026-05-07 16:50 51.85591 -0.47628 1766 ft 147 kts 75°
2026-05-07 16:51 51.85867 -0.46043 1562 ft 145 kts 75°
2026-05-07 16:51 51.86141 -0.44469 1365 ft 144 kts 75°
2026-05-07 16:51 51.86409 -0.42928 1159 ft 141 kts 75°
2026-05-07 16:51 51.86668 -0.41422 966 ft 138 kts 76°
2026-05-07 16:52 51.86921 -0.39937 772 ft 136 kts 75°
2026-05-07 16:52 51.87186 -0.38471 574 ft 135 kts 76°
2026-05-07 16:52 51.87420 -0.37093 522 ft 110 kts 75°
2026-05-07 16:52 51.87571 -0.36215 519 ft 59 kts 74°
2026-05-07 16:53 51.87631 -0.35921 516 ft 13 kts 36°
2026-05-07 16:53 51.87720 -0.35942 516 ft 13 kts 345°
2026-05-07 16:53 51.87781 -0.36023 517 ft 10 kts 289°
2026-05-07 16:53 51.87776 -0.36113 518 ft 8 kts 257°
2026-05-07 16:54 51.87763 -0.36201 518 ft 12 kts 254°
2026-05-07 16:54 51.87720 -0.36441 519 ft 25 kts 255°
2026-05-07 16:54 51.87674 -0.36713 522 ft 25 kts 254°
2026-05-07 16:54 51.87647 -0.36891 525 ft 13 kts 270°
2026-05-07 16:55 51.87748 -0.36989 518 ft 24 kts 342°
2026-05-07 16:55 51.87926 -0.37083 510 ft 29 kts 342°
2026-05-07 16:55 51.88032 -0.37141 508 ft 7 kts 328°
2026-05-07 16:55 51.88037 -0.37237 508 ft 13 kts 254°
2026-05-07 16:56 51.88050 -0.37309 508 ft 6 kts 335°
2026-05-07 16:56 51.88086 -0.37327 508 ft 5 kts 342°
2026-05-07 16:56 51.88093 -0.37331 508 ft 0 kts 342°